When you browse on this site, cookies collect data to enhance your experience and personalize the content and advertising you see.
Visit our Privacy Policy to learn more. By continuing to use the site, you agree to this use of cookies and data.
EN

Hourly Weather Kangayam

Today, 12 August, Wednesday

Time Temperature Precipitation Wind Pressure Humidity
00:00 +27°C° 0 mm 8 mps 731 mmHg 75%
01:00 +26°C° 0 mm 8 mps 731 mmHg 76%
02:00 +26°C° 0 mm 8 mps 730 mmHg 77%
03:00 +26°C° 0 mm 8 mps 730 mmHg 77%
04:00 +26°C° 0 mm 8 mps 731 mmHg 78%
05:00 +26°C° 0 mm 7 mps 731 mmHg 81%
06:00 +27°C° 0 mm 8 mps 731 mmHg 78%
07:00 +27°C° 0 mm 8 mps 731 mmHg 74%
08:00 +28°C° 0 mm 8 mps 732 mmHg 71%
09:00 +31°C° 0 mm 8 mps 732 mmHg 65%
10:00 +32°C° 0 mm 8 mps 732 mmHg 60%
11:00 +33°C° 0 mm 7 mps 732 mmHg 54%
12:00 +34°C° 0 mm 7 mps 731 mmHg 53%
13:00 +34°C° 0 mm 8 mps 730 mmHg 52%
14:00 +34°C° 0 mm 8 mps 730 mmHg 51%
15:00 +33°C° 0.1 mm 8 mps 730 mmHg 54%
16:00 +32°C° 0.1 mm 9 mps 730 mmHg 57%
17:00 +31°C° 0 mm 9 mps 730 mmHg 60%
18:00 +31°C° 0.1 mm 9 mps 730 mmHg 64%
19:00 +29°C° 0.1 mm 9 mps 731 mmHg 67%
20:00 +28°C° 0.1 mm 9 mps 731 mmHg 71%
21:00 +28°C° 0 mm 8 mps 732 mmHg 72%
22:00 +27°C° 0 mm 8 mps 732 mmHg 73%
23:00 +27°C° 0 mm 8 mps 732 mmHg 74%

Tomorrow, 13 August, Thursday

Time Temperature Precipitation Wind Pressure Humidity
00:00 +27°C° 0 mm 7 mps 732 mmHg 75%
01:00 +26°C° 0 mm 7 mps 731 mmHg 77%
02:00 +26°C° 0 mm 7 mps 730 mmHg 78%
03:00 +26°C° 0 mm 7 mps 730 mmHg 79%
04:00 +26°C° 0 mm 7 mps 730 mmHg 79%
05:00 +26°C° 0 mm 7 mps 730 mmHg 80%
06:00 +26°C° 0 mm 7 mps 731 mmHg 76%
07:00 +27°C° 0 mm 7 mps 731 mmHg 73%
08:00 +28°C° 0 mm 7 mps 731 mmHg 70%
09:00 +29°C° 0 mm 7 mps 731 mmHg 64%
10:00 +32°C° 0 mm 6 mps 731 mmHg 58%
11:00 +33°C° 0 mm 6 mps 731 mmHg 52%
12:00 +34°C° 0 mm 6 mps 730 mmHg 50%
13:00 +34°C° 0 mm 7 mps 729 mmHg 47%
14:00 +35°C° 0 mm 7 mps 728 mmHg 45%
15:00 +34°C° 0 mm 7 mps 728 mmHg 48%
16:00 +33°C° 0 mm 8 mps 728 mmHg 52%
17:00 +33°C° 0 mm 8 mps 728 mmHg 55%
18:00 +32°C° 0 mm 8 mps 729 mmHg 59%
19:00 +29°C° 0 mm 9 mps 729 mmHg 63%
20:00 +28°C° 0 mm 9 mps 730 mmHg 66%
21:00 +28°C° 0 mm 8 mps 730 mmHg 68%
22:00 +28°C° 0 mm 8 mps 730 mmHg 69%
23:00 +27°C° 0 mm 8 mps 730 mmHg 70%

Day after tomorrow, 14 August, Friday

Time Temperature Precipitation Wind Pressure Humidity
00:00 +27°C° 0 mm 7 mps 730 mmHg 71%
01:00 +27°C° 0 mm 7 mps 730 mmHg 73%
02:00 +27°C° 0 mm 7 mps 729 mmHg 74%
03:00 +26°C° 0 mm 7 mps 729 mmHg 75%
04:00 +26°C° 0 mm 7 mps 729 mmHg 75%
05:00 +26°C° 0 mm 6 mps 729 mmHg 76%
06:00 +27°C° 0 mm 6 mps 730 mmHg 73%
07:00 +27°C° 0 mm 7 mps 730 mmHg 70%
08:00 +28°C° 0 mm 7 mps 731 mmHg 68%
09:00 +29°C° 0 mm 7 mps 731 mmHg 62%
10:00 +32°C° 0 mm 7 mps 731 mmHg 56%
11:00 +33°C° 0 mm 7 mps 730 mmHg 50%
12:00 +34°C° 0 mm 7 mps 730 mmHg 47%
13:00 +35°C° 0 mm 7 mps 729 mmHg 45%
14:00 +35°C° 0 mm 8 mps 728 mmHg 43%
15:00 +35°C° 0 mm 8 mps 728 mmHg 45%
16:00 +34°C° 0 mm 8 mps 728 mmHg 47%
17:00 +33°C° 0 mm 8 mps 728 mmHg 49%
18:00 +32°C° 0 mm 8 mps 728 mmHg 54%
19:00 +31°C° 0 mm 9 mps 729 mmHg 58%
20:00 +28°C° 0 mm 9 mps 729 mmHg 63%
21:00 +28°C° 0 mm 8 mps 730 mmHg 65%
22:00 +28°C° 0 mm 8 mps 730 mmHg 67%
23:00 +27°C° 0 mm 8 mps 730 mmHg 69%

15 August, Saturday

Time Temperature Precipitation Wind Pressure Humidity
00:00 +27°C° 0 mm 8 mps 730 mmHg 70%
01:00 +27°C° 0 mm 8 mps 729 mmHg 71%
02:00 +26°C° 0 mm 7 mps 729 mmHg 72%
03:00 +26°C° 0 mm 7 mps 729 mmHg 73%
04:00 +26°C° 0 mm 7 mps 729 mmHg 74%
05:00 +26°C° 0 mm 6 mps 729 mmHg 75%
06:00 +27°C° 0 mm 6 mps 729 mmHg 71%
07:00 +28°C° 0 mm 6 mps 730 mmHg 67%
08:00 +28°C° 0 mm 6 mps 730 mmHg 64%
09:00 +30°C° 0 mm 7 mps 730 mmHg 58%
10:00 +32°C° 0 mm 7 mps 730 mmHg 51%
11:00 +34°C° 0 mm 7 mps 730 mmHg 45%
12:00 +35°C° 0 mm 8 mps 730 mmHg 44%
13:00 +35°C° 0 mm 8 mps 729 mmHg 42%
14:00 +37°C° 0 mm 8 mps 728 mmHg 40%
15:00 +35°C° 0 mm 8 mps 728 mmHg 43%
16:00 +34°C° 0 mm 8 mps 728 mmHg 45%
17:00 +33°C° 0 mm 8 mps 728 mmHg 48%
18:00 +32°C° 0 mm 9 mps 729 mmHg 52%
19:00 +31°C° 0 mm 9 mps 729 mmHg 57%
20:00 +29°C° 0 mm 9 mps 730 mmHg 61%
21:00 +28°C° 0 mm 8 mps 730 mmHg 63%
22:00 +28°C° 0 mm 8 mps 730 mmHg 65%
23:00 +27°C° 0 mm 7 mps 731 mmHg 67%

16 August, Sunday

Time Temperature Precipitation Wind Pressure Humidity
00:00 +27°C° 0 mm 7 mps 730 mmHg 68%
01:00 +27°C° 0 mm 7 mps 730 mmHg 69%
02:00 +26°C° 0 mm 7 mps 729 mmHg 71%
03:00 +26°C° 0 mm 6 mps 729 mmHg 72%
04:00 +26°C° 0 mm 6 mps 729 mmHg 74%
05:00 +26°C° 0 mm 6 mps 729 mmHg 75%
06:00 +27°C° 0 mm 6 mps 730 mmHg 72%
07:00 +27°C° 0 mm 6 mps 730 mmHg 68%
08:00 +28°C° 0 mm 6 mps 731 mmHg 64%
09:00 +30°C° 0 mm 6 mps 731 mmHg 58%
10:00 +33°C° 0 mm 6 mps 731 mmHg 51%
11:00 +34°C° 0 mm 5 mps 731 mmHg 45%
12:00 +35°C° 0 mm 5 mps 730 mmHg 43%
13:00 +36°C° 0 mm 5 mps 729 mmHg 41%
14:00 +36°C° 0 mm 5 mps 728 mmHg 39%
15:00 +36°C° 0 mm 6 mps 728 mmHg 41%
16:00 +35°C° 0 mm 7 mps 728 mmHg 43%
17:00 +34°C° 0 mm 7 mps 728 mmHg 46%
18:00 +33°C° 0 mm 8 mps 729 mmHg 50%
19:00 +32°C° 0 mm 8 mps 729 mmHg 55%
20:00 +29°C° 0 mm 9 mps 730 mmHg 59%
21:00 +29°C° 0 mm 8 mps 730 mmHg 61%
22:00 +28°C° 0 mm 8 mps 730 mmHg 63%
23:00 +28°C° 0 mm 7 mps 731 mmHg 65%

17 August, Monday

Time Temperature Precipitation Wind Pressure Humidity
00:00 +27°C° 0 mm 7 mps 730 mmHg 67%
01:00 +27°C° 0 mm 6 mps 730 mmHg 69%
02:00 +27°C° 0 mm 6 mps 729 mmHg 71%
03:00 +26°C° 0 mm 6 mps 729 mmHg 72%
04:00 +26°C° 0 mm 6 mps 729 mmHg 73%
05:00 +26°C° 0 mm 6 mps 729 mmHg 75%
06:00 +27°C° 0 mm 6 mps 730 mmHg 71%
07:00 +28°C° 0 mm 6 mps 730 mmHg 68%
08:00 +28°C° 0 mm 5 mps 731 mmHg 65%
09:00 +30°C° 0 mm 5 mps 730 mmHg 59%
10:00 +33°C° 0 mm 5 mps 730 mmHg 52%
11:00 +34°C° 0 mm 4 mps 730 mmHg 46%
12:00 +35°C° 0 mm 5 mps 730 mmHg 44%
13:00 +36°C° 0 mm 5 mps 729 mmHg 41%
14:00 +37°C° 0 mm 5 mps 728 mmHg 39%
15:00 +36°C° 0 mm 6 mps 728 mmHg 42%
16:00 +35°C° 0 mm 7 mps 728 mmHg 45%
17:00 +34°C° 0 mm 7 mps 728 mmHg 48%
18:00 +33°C° 0.1 mm 8 mps 728 mmHg 53%
19:00 +31°C° 0.1 mm 8 mps 729 mmHg 58%
20:00 +29°C° 0.1 mm 8 mps 729 mmHg 63%
21:00 +29°C° 0.1 mm 8 mps 730 mmHg 65%
22:00 +28°C° 0.1 mm 7 mps 730 mmHg 67%
23:00 +28°C° 0.1 mm 7 mps 730 mmHg 69%
Show more